Lantana, FL

10:09 PM EST on February 05, 2016 (GMT -0500)
Island Estates | | Change Station
CLOSE
Current Station
Personal Weather Station
Location: Lantana, FL
Elevation: 45 ft
Nearby Weather Stations

Elev 45 ft 26.57 °N, 80.08 °W | Updated 4 minutes ago

Overcast
Overcast
68.5 °F
Feels Like 68.5 °F
N
6.0
Wind Variable Wind from NE
Gusts 7.0 mph

Today
High -- | Low -- °F
--% Chance of Precip.
Yesterday
High -- | Low -- °F
Precip. -- in
Pressure 30.17 in
Visibility 10.0 miles
Clouds Mostly Cloudy 3400 ft
Mostly Cloudy 4500 ft
Overcast 5500 ft
Dew Point 60 °F
Humidity 74%
Rainfall 0.30 in
Snow Depth Not available.
7:03 AM 6:05 PM
Waning Crescent, 8% visible
METAR KPBI 060253Z 06011G20KT 10SM BKN034 BKN045 OVC055 21/13 A3017 RMK AO2 SLP217 T02060128 51002 $
Pressure 30.17 in
Visibility 10.0 miles
Clouds Mostly Cloudy 3400 ft
Mostly Cloudy 4500 ft
Overcast 5500 ft
Dew Point 60 °F
Humidity 74%
Rainfall 0.30 in
Snow Depth Not available.
7:03 AM 6:05 PM
Waning Crescent, 8% visible
METAR KPBI 060253Z 06011G20KT 10SM BKN034 BKN045 OVC055 21/13 A3017 RMK AO2 SLP217 T02060128 51002 $

10-Day Weather Forecast

Almanac

Astronomy

Feb. 05, 2016 Rise Set
Actual Time
Civil Twilight
Nautical Twilight
Astronomical Twilight
Moon
Length of Visible Light
Length of Day
Tomorrow will be .
, % of the Moon is Illuminated

Today's Extremes

State Highs State Lows

Community

WunderPhotos

Upload Photos

1,890,915 photos uploaded!

WunderBlog® & News

Nearby

Air Quality

  Air Quality AQ Index Pollutant
Not available.

Snow Depth

Station Depth Elevation

Earthquake Activity

City Distance Mag. Time & Date
Minimum magnitude displayed is 2.5.

Coastal Water Temperatures

Place Temperature

Stations

Nearby Weather Stations

Station Location Temp. Windchill Dew Point Humidity Wind Precip. Elev Updated Type
                   

Watches & Warnings

There are currently no watches in effect.